TimeEDT,TemperatureF,Dew PointF,Humidity,Sea Level PressureIn,VisibilityMPH,Wind Direction,Wind SpeedMPH,Gust SpeedMPH,PrecipitationIn,Events,Conditions,WindDirDegrees,DateUTC
12:15 AM,62.6,57.2,82,29.87,10.0,East,8.1,-,N/A,,Overcast,100,2012-10-19 04:15:00
12:35 AM,62.6,57.2,82,29.88,10.0,East,6.9,-,N/A,,Overcast,90,2012-10-19 04:35:00
12:55 AM,62.6,59.0,88,29.88,10.0,East,5.8,-,N/A,,Overcast,100,2012-10-19 04:55:00
1:15 AM,62.6,59.0,88,29.87,10.0,ESE,6.9,-,N/A,,Overcast,110,2012-10-19 05:15:00
1:35 AM,62.6,59.0,88,29.86,10.0,ESE,8.1,-,N/A,,Overcast,110,2012-10-19 05:35:00
1:55 AM,62.6,60.8,94,29.85,10.0,ESE,8.1,-,N/A,,Overcast,120,2012-10-19 05:55:00
2:15 AM,62.6,60.8,94,29.84,10.0,ESE,11.5,18.4,N/A,,Overcast,120,2012-10-19 06:15:00
2:35 AM,64.4,62.6,94,29.83,10.0,ESE,9.2,16.1,N/A,,Unknown,120,2012-10-19 06:35:00
2:55 AM,64.4,62.6,94,29.83,10.0,ESE,11.5,16.1,N/A,,Overcast,120,2012-10-19 06:55:00
3:15 AM,64.4,60.8,88,29.83,10.0,SE,9.2,17.3,N/A,,Overcast,130,2012-10-19 07:15:00
3:35 AM,64.4,59.0,83,29.82,10.0,ESE,8.1,-,N/A,,Overcast,120,2012-10-19 07:35:00
3:55 AM,62.6,60.8,94,29.82,5.0,Calm,Calm,-,N/A,,Overcast,0,2012-10-19 07:55:00
4:15 AM,62.6,60.8,94,29.83,9.0,Calm,Calm,-,N/A,,Overcast,0,2012-10-19 08:15:00
4:35 AM,60.8,59.0,94,29.83,1.0,SSW,9.2,-,0.32,,Overcast,210,2012-10-19 08:35:00
4:55 AM,59.0,59.0,100,29.82,2.5,Calm,Calm,-,0.59,,Overcast,0,2012-10-19 08:55:00
5:15 AM,59.0,59.0,100,29.82,2.0,Calm,Calm,-,0.08,,Overcast,0,2012-10-19 09:15:00
5:35 AM,59.0,59.0,100,29.82,2.5,Calm,Calm,-,0.36,,Overcast,0,2012-10-19 09:35:00
5:55 AM,59.0,59.0,100,29.81,3.0,Calm,Calm,-,0.53,,Overcast,0,2012-10-19 09:55:00
6:15 AM,59.0,59.0,100,29.80,3.0,Calm,Calm,-,0.07,,Overcast,0,2012-10-19 10:15:00
6:35 AM,59.0,59.0,100,29.80,2.5,Calm,Calm,-,0.10,,Overcast,0,2012-10-19 10:35:00
6:55 AM,59.0,59.0,100,29.79,2.0,NE,3.5,-,0.17,,Overcast,50,2012-10-19 10:55:00
7:15 AM,59.0,59.0,100,29.79,3.0,Calm,Calm,-,0.02,,Overcast,0,2012-10-19 11:15:00
7:35 AM,59.0,59.0,100,29.77,2.5,Calm,Calm,-,0.03,,Overcast,0,2012-10-19 11:35:00
7:55 AM,60.8,60.8,100,29.78,4.0,Calm,Calm,-,0.03,,Overcast,0,2012-10-19 11:55:00
8:15 AM,62.6,62.6,100,29.77,7.0,SE,5.8,-,N/A,,Overcast,130,2012-10-19 12:15:00
8:35 AM,62.6,62.6,100,29.78,5.0,SE,6.9,-,N/A,,Overcast,130,2012-10-19 12:35:00
8:55 AM,64.4,62.6,94,29.79,5.0,SE,5.8,-,N/A,,Overcast,130,2012-10-19 12:55:00
9:15 AM,64.4,62.6,94,29.79,3.0,SE,5.8,-,N/A,,Overcast,140,2012-10-19 13:15:00
9:35 AM,64.4,64.4,100,29.78,0.8,ESE,9.2,-,0.14,,Overcast,120,2012-10-19 13:35:00
9:55 AM,64.4,64.4,100,29.78,3.0,ESE,6.9,-,0.18,,Overcast,120,2012-10-19 13:55:00
10:15 AM,64.4,64.4,100,29.78,5.0,SE,4.6,-,0.01,,Overcast,140,2012-10-19 14:15:00
10:35 AM,64.4,64.4,100,29.76,9.0,Calm,Calm,-,0.01,,Overcast,0,2012-10-19 14:35:00
10:55 AM,66.2,64.4,94,29.76,10.0,SE,5.8,-,0.01,,Overcast,130,2012-10-19 14:55:00
11:15 AM,66.2,64.4,94,29.76,9.0,SE,5.8,-,N/A,,Overcast,130,2012-10-19 15:15:00
11:35 AM,66.2,64.4,94,29.77,10.0,SE,8.1,16.1,N/A,,Overcast,140,2012-10-19 15:35:00
11:55 AM,66.2,64.4,94,29.76,10.0,SSE,9.2,-,N/A,,Overcast,150,2012-10-19 15:55:00
12:15 PM,66.2,64.4,94,29.75,10.0,SE,6.9,16.1,N/A,,Overcast,140,2012-10-19 16:15:00
12:35 PM,66.2,64.4,94,29.75,10.0,SE,9.2,17.3,N/A,,Overcast,140,2012-10-19 16:35:00
12:55 PM,66.2,64.4,94,29.74,10.0,SE,6.9,-,N/A,,Overcast,140,2012-10-19 16:55:00
1:15 PM,68.0,64.4,88,29.74,10.0,SE,8.1,-,N/A,,Overcast,140,2012-10-19 17:15:00
1:35 PM,68.0,64.4,88,29.73,10.0,SE,8.1,-,N/A,,Overcast,130,2012-10-19 17:35:00
1:55 PM,68.0,64.4,88,29.72,10.0,SSE,8.1,-,N/A,,Overcast,150,2012-10-19 17:55:00
2:15 PM,68.0,64.4,88,29.71,10.0,SE,6.9,18.4,N/A,,Overcast,140,2012-10-19 18:15:00
2:35 PM,68.0,64.4,88,29.70,10.0,SE,6.9,-,N/A,,Mostly Cloudy,140,2012-10-19 18:35:00
2:55 PM,68.0,64.4,88,29.70,10.0,SE,4.6,-,N/A,,Mostly Cloudy,140,2012-10-19 18:55:00
3:15 PM,68.0,64.4,88,29.70,10.0,SSE,6.9,-,N/A,,Overcast,150,2012-10-19 19:15:00
3:35 PM,69.8,64.4,83,29.69,10.0,SE,3.5,-,N/A,,Mostly Cloudy,140,2012-10-19 19:35:00
3:55 PM,69.8,64.4,83,29.69,10.0,SE,8.1,-,N/A,,Mostly Cloudy,140,2012-10-19 19:55:00
4:15 PM,71.6,64.4,78,29.68,10.0,SE,6.9,-,N/A,,Mostly Cloudy,140,2012-10-19 20:15:00
4:35 PM,71.6,64.4,78,29.67,10.0,SE,5.8,-,N/A,,Partly Cloudy,140,2012-10-19 20:35:00
4:55 PM,71.6,64.4,78,29.67,10.0,SE,6.9,-,N/A,,Mostly Cloudy,140,2012-10-19 20:55:00
5:15 PM,71.6,64.4,78,29.66,10.0,SE,8.1,-,N/A,,Scattered Clouds,140,2012-10-19 21:15:00
5:35 PM,69.8,64.4,83,29.66,10.0,SE,9.2,-,N/A,,Scattered Clouds,130,2012-10-19 21:35:00
5:55 PM,68.0,64.4,88,29.65,10.0,Calm,Calm,-,N/A,,Scattered Clouds,0,2012-10-19 21:55:00
6:15 PM,68.0,64.4,88,29.65,7.0,SE,4.6,-,N/A,,Scattered Clouds,130,2012-10-19 22:15:00
6:35 PM,68.0,64.4,88,29.65,10.0,ESE,4.6,-,N/A,,Scattered Clouds,110,2012-10-19 22:35:00
6:55 PM,66.2,64.4,94,29.64,10.0,ESE,4.6,-,N/A,,Scattered Clouds,110,2012-10-19 22:55:00
7:15 PM,66.2,64.4,94,29.65,10.0,ESE,4.6,-,N/A,,Scattered Clouds,120,2012-10-19 23:15:00
7:35 PM,66.2,64.4,94,29.65,10.0,Calm,Calm,-,N/A,,Mostly Cloudy,0,2012-10-19 23:35:00
7:55 PM,66.2,64.4,94,29.65,10.0,Calm,Calm,-,N/A,,Mostly Cloudy,0,2012-10-19 23:55:00
8:15 PM,66.2,64.4,94,29.65,10.0,Calm,Calm,-,N/A,,Scattered Clouds,0,2012-10-20 00:15:00
8:35 PM,66.2,64.4,94,29.65,10.0,SE,5.8,-,N/A,,Scattered Clouds,130,2012-10-20 00:35:00
8:55 PM,66.2,64.4,94,29.65,10.0,SE,5.8,-,N/A,,Mostly Cloudy,130,2012-10-20 00:55:00
9:15 PM,66.2,64.4,94,29.66,10.0,SE,5.8,-,N/A,,Mostly Cloudy,130,2012-10-20 01:15:00
9:35 PM,66.2,64.4,94,29.66,10.0,SE,4.6,-,N/A,,Clear,140,2012-10-20 01:35:00
9:55 PM,66.2,64.4,94,29.66,9.0,SSE,9.2,-,N/A,,Clear,150,2012-10-20 01:55:00
10:15 PM,66.2,64.4,94,29.67,9.0,South,11.5,-,N/A,,Mostly Cloudy,170,2012-10-20 02:15:00
10:35 PM,62.6,59.0,88,29.69,5.0,South,9.2,-,0.04,,Mostly Cloudy,190,2012-10-20 02:35:00
10:55 PM,60.8,59.0,94,29.69,8.0,South,3.5,-,0.05,,Overcast,190,2012-10-20 02:55:00
11:15 PM,60.8,57.2,88,29.69,5.0,South,5.8,-,N/A,,Overcast,170,2012-10-20 03:15:00
11:35 PM,60.8,57.2,88,29.69,10.0,Calm,Calm,-,N/A,,Overcast,0,2012-10-20 03:35:00
11:55 PM,60.8,57.2,88,29.68,10.0,Calm,Calm,-,N/A,,Overcast,0,2012-10-20 03:55:00